| time (UTC) | temp F | wind direction | speed MPH | gust MPH | rain 1hr in | rain 24hr in | rain mn in | humidity % | barometer mb |
| 20260506091108 | 55 | 89 | 1.0 | 2.0 | 0.00 | 0.04 | 0.00 | 73 | 1014.7 |
| 20260506090550 | 55 | 360 | 1.0 | 2.0 | 0.00 | 0.04 | 0.00 | 72 | 1014.7 |
| 20260506090033 | 55 | 324 | 1.0 | 2.0 | 0.00 | 0.04 | 0.00 | 72 | 1014.7 |
| 20260506085537 | 56 | 1 | 2.0 | 2.0 | 0.00 | 0.06 | 0.00 | 72 | 1014.8 |
| 20260506085047 | 56 | 35 | 1.0 | 2.0 | 0.00 | 0.06 | 0.00 | 72 | 1014.7 |
| 20260506084549 | 56 | 1 | 1.0 | 2.0 | 0.00 | 0.06 | 0.00 | 71 | 1014.7 |
| 20260506084030 | 56 | 269 | 1.0 | 2.0 | 0.00 | 0.06 | 0.00 | 70 | 1014.7 |
| 20260506083558 | 56 | 314 | 0.0 | 2.0 | 0.00 | 0.06 | 0.00 | 70 | 1014.7 |
| 20260506083026 | 57 | 1 | 1.0 | 2.0 | 0.00 | 0.06 | 0.00 | 70 | 1014.7 |
| 20260506082537 | 57 | 223 | 1.0 | 2.0 | 0.00 | 0.06 | 0.00 | 70 | 1014.8 |
| 20260506082040 | 57 | 112 | 2.0 | 2.0 | 0.00 | 0.06 | 0.00 | 70 | 1014.8 |
| 20260506081522 | 57 | 314 | 1.0 | 2.0 | 0.00 | 0.06 | 0.00 | 69 | 1014.8 |
| 20260506081049 | 57 | 46 | 1.0 | 3.0 | 0.00 | 0.06 | 0.00 | 68 | 1014.8 |
| 20260506080551 | 57 | 331 | 2.0 | 3.0 | 0.00 | 0.06 | 0.00 | 68 | 1014.8 |
| 20260506073103 | 57 | 9 | 2.0 | 3.0 | 0.00 | 0.11 | 0.00 | 68 | 1014.9 |
| 20260506072553 | 58 | 302 | 2.0 | 3.0 | 0.00 | 0.11 | 0.00 | 66 | 1014.9 |
| 20260506072044 | 58 | 283 | 2.0 | 3.0 | 0.00 | 0.11 | 0.00 | 65 | 1014.8 |
| 20260506071554 | 58 | 277 | 1.0 | 2.0 | 0.00 | 0.11 | 0.00 | 66 | 1014.8 |
| 20260506071033 | 58 | 314 | 1.0 | 2.0 | 0.00 | 0.11 | 0.00 | 65 | 1014.8 |
| 20260506070543 | 58 | 117 | 1.0 | 3.0 | 0.00 | 0.11 | 0.00 | 65 | 1014.8 |
| 20260506062026 | 61 | 269 | 1.0 | 3.0 | 0.00 | 0.16 | 0.11 | 57 | 1014.6 |
| 20260506061537 | 61 | 223 | 2.0 | 3.0 | 0.00 | 0.16 | 0.11 | 57 | 1014.5 |
| 20260506061040 | 61 | 286 | 2.0 | 3.0 | 0.00 | 0.16 | 0.11 | 55 | 1014.5 |
| 20260506060523 | 61 | 286 | 2.0 | 3.0 | 0.00 | 0.16 | 0.11 | 54 | 1014.6 |
| 20260506051041 | 63 | 293 | 5.0 | 8.0 | 0.00 | 0.19 | 0.11 | 52 | 1014.1 |
| 20260506050545 | 63 | 293 | 5.0 | 8.0 | 0.00 | 0.19 | 0.11 | 52 | 1014.2 |
| 20260506045032 | 63 | 284 | 3.0 | 8.0 | 0.00 | 0.22 | 0.11 | 52 | 1014.0 |
| 20260506044544 | 63 | 312 | 5.0 | 8.0 | 0.00 | 0.22 | 0.11 | 51 | 1014.0 |
| 20260506044042 | 63 | 311 | 4.0 | 9.0 | 0.00 | 0.22 | 0.11 | 51 | 1013.9 |
| 20260506043524 | 64 | 285 | 3.0 | 9.0 | 0.00 | 0.22 | 0.11 | 51 | 1013.9 |
| 20260506043031 | 64 | 284 | 2.0 | 6.0 | 0.00 | 0.22 | 0.11 | 51 | 1013.9 |
| 20260506042540 | 64 | 340 | 2.0 | 7.0 | 0.00 | 0.22 | 0.11 | 51 | 1013.9 |
| 20260506042044 | 64 | 276 | 5.0 | 7.0 | 0.00 | 0.22 | 0.11 | 50 | 1013.8 |
| 20260506041526 | 64 | 318 | 5.0 | 6.0 | 0.00 | 0.22 | 0.11 | 50 | 1013.7 |
| 20260506041032 | 64 | 293 | 4.0 | 7.0 | 0.00 | 0.22 | 0.11 | 50 | 1013.5 |
| 20260506040544 | 64 | 309 | 4.0 | 10.0 | 0.00 | 0.22 | 0.11 | 49 | 1013.4 |
| 20260506040046 | 65 | 304 | 4.0 | 10.0 | 0.00 | 0.22 | 0.11 | 49 | 1013.4 |
| 20260506035548 | 65 | 314 | 5.0 | 9.0 | 0.00 | 0.22 | 0.11 | 48 | 1013.3 |
| 20260506035026 | 65 | 309 | 5.0 | 8.0 | 0.00 | 0.22 | 0.11 | 48 | 1013.1 |
| 20260506034638 | 65 | 300 | 6.0 | 9.0 | 0.00 | 0.22 | 0.11 | 48 | 1013.1 |
| 20260506034035 | 65 | 315 | 5.0 | 9.0 | 0.00 | 0.22 | 0.11 | 47 | 1013.0 |
| 20260506033538 | 65 | 296 | 5.0 | 9.0 | 0.00 | 0.22 | 0.11 | 47 | 1013.0 |
| 20260506033038 | 65 | 284 | 5.0 | 11.0 | 0.00 | 0.22 | 0.11 | 47 | 1013.0 |
| 20260506032549 | 66 | 271 | 6.0 | 11.0 | 0.00 | 0.22 | 0.11 | 46 | 1012.9 |
| 20260506032031 | 66 | 278 | 6.0 | 12.0 | 0.00 | 0.22 | 0.11 | 46 | 1012.7 |
| 20260506031535 | 66 | 295 | 8.0 | 14.0 | 0.00 | 0.22 | 0.11 | 45 | 1012.6 |
| 20260506031042 | 66 | 264 | 9.0 | 14.0 | 0.00 | 0.22 | 0.11 | 44 | 1012.5 |
| 20260506030533 | 67 | 295 | 6.0 | 10.0 | 0.00 | 0.22 | 0.11 | 41 | 1012.5 |
| 20260506030044 | 67 | 309 | 6.0 | 13.0 | 0.00 | 0.22 | 0.11 | 39 | 1012.3 |
| 20260506025525 | 67 | 278 | 6.0 | 12.0 | 0.00 | 0.23 | 0.11 | 38 | 1012.2 |
| 20260506025036 | 67 | 302 | 7.0 | 12.0 | 0.00 | 0.23 | 0.11 | 37 | 1012.2 |
| 20260506024535 | 67 | 264 | 7.0 | 15.0 | 0.00 | 0.23 | 0.11 | 36 | 1012.1 |
| 20260506024046 | 67 | 269 | 7.0 | 13.0 | 0.00 | 0.23 | 0.11 | 36 | 1012.1 |
| 20260506023529 | 68 | 264 | 7.0 | 19.0 | 0.00 | 0.23 | 0.11 | 35 | 1011.9 |
| 20260506023100 | 68 | 288 | 7.0 | 14.0 | 0.00 | 0.23 | 0.11 | 34 | 1011.8 |
| 20260506022538 | 68 | 307 | 9.0 | 18.0 | 0.00 | 0.23 | 0.11 | 32 | 1011.8 |
| 20260506022049 | 68 | 278 | 9.0 | 18.0 | 0.00 | 0.23 | 0.11 | 31 | 1011.6 |
| 20260506021531 | 69 | 248 | 13.0 | 18.0 | 0.00 | 0.23 | 0.11 | 32 | 1011.6 |
| 20260506021103 | 69 | 283 | 10.0 | 19.0 | 0.00 | 0.23 | 0.11 | 32 | 1011.4 |
| 20260506020540 | 69 | 277 | 11.0 | 22.0 | 0.00 | 0.23 | 0.11 | 32 | 1011.3 |
| 20260506020030 | 69 | 298 | 12.0 | 22.0 | 0.00 | 0.23 | 0.11 | 32 | 1011.2 |
| 20260506015610 | 70 | 271 | 12.0 | 19.0 | 0.00 | 0.25 | 0.11 | 32 | 1011.2 |
| 20260506015039 | 70 | 236 | 11.0 | 19.0 | 0.00 | 0.25 | 0.11 | 31 | 1011.2 |
| 20260506014538 | 70 | 274 | 14.0 | 25.0 | 0.00 | 0.25 | 0.11 | 30 | 1011.3 |
| 20260506014029 | 71 | 298 | 12.0 | 25.0 | 0.00 | 0.25 | 0.11 | 30 | 1011.2 |
| 20260506013539 | 71 | 279 | 12.0 | 21.0 | 0.00 | 0.25 | 0.11 | 31 | 1011.2 |
| 20260506013042 | 71 | 257 | 11.0 | 21.0 | 0.00 | 0.25 | 0.11 | 31 | 1011.2 |
| 20260506012545 | 71 | 297 | 12.0 | 21.0 | 0.00 | 0.25 | 0.11 | 31 | 1011.2 |
| 20260506012023 | 71 | 290 | 12.0 | 19.0 | 0.00 | 0.25 | 0.11 | 32 | 1011.2 |
| 20260506011534 | 71 | 317 | 10.0 | 20.0 | 0.00 | 0.25 | 0.11 | 32 | 1011.2 |
| 20260506011038 | 71 | 303 | 12.0 | 20.0 | 0.00 | 0.25 | 0.11 | 31 | 1011.1 |
| 20260506010541 | 71 | 274 | 11.0 | 20.0 | 0.00 | 0.25 | 0.11 | 32 | 1011.1 |
| 20260506010041 | 72 | 297 | 14.0 | 20.0 | 0.00 | 0.25 | 0.11 | 31 | 1011.1 |
| 20260506005532 | 72 | 269 | 11.0 | 19.0 | 0.00 | 0.26 | 0.11 | 31 | 1011.0 |
| 20260506005039 | 72 | 276 | 10.0 | 22.0 | 0.00 | 0.26 | 0.11 | 31 | 1010.9 |
| 20260506004542 | 73 | 266 | 13.0 | 21.0 | 0.00 | 0.26 | 0.11 | 31 | 1010.9 |
| 20260506004024 | 73 | 293 | 13.0 | 21.0 | 0.00 | 0.26 | 0.11 | 30 | 1010.8 |
| 20260506003530 | 73 | 274 | 8.0 | 15.0 | 0.00 | 0.26 | 0.11 | 28 | 1010.7 |
| 20260506003041 | 73 | 303 | 11.0 | 18.0 | 0.00 | 0.26 | 0.11 | 29 | 1010.8 |
| 20260506002545 | 73 | 253 | 11.0 | 18.0 | 0.00 | 0.26 | 0.11 | 27 | 1010.8 |
| 20260506002047 | 74 | 248 | 11.0 | 21.0 | 0.00 | 0.26 | 0.11 | 26 | 1010.7 |
| 20260506001545 | 75 | 265 | 16.0 | 21.0 | 0.00 | 0.26 | 0.11 | 26 | 1010.8 |
| 20260506001055 | 75 | 245 | 13.0 | 21.0 | 0.00 | 0.26 | 0.11 | 26 | 1010.7 |
| 20260506000537 | 75 | 274 | 9.0 | 17.0 | 0.00 | 0.26 | 0.11 | 26 | 1010.6 |
| 20260506000039 | 75 | 278 | 10.0 | 18.0 | 0.00 | 0.26 | 0.11 | 26 | 1010.5 |
| 20260505235538 | 75 | 243 | 12.0 | 20.0 | 0.00 | 0.26 | 0.11 | 26 | 1010.7 |
| 20260505235048 | 76 | 248 | 12.0 | 20.0 | 0.00 | 0.26 | 0.11 | 26 | 1010.5 |
| 20260505234607 | 76 | 274 | 9.0 | 21.0 | 0.00 | 0.26 | 0.11 | 26 | 1010.5 |
| 20260505234025 | 76 | 236 | 12.0 | 21.0 | 0.00 | 0.26 | 0.11 | 25 | 1010.4 |
| 20260505233532 | 76 | 259 | 12.0 | 19.0 | 0.00 | 0.26 | 0.11 | 25 | 1010.4 |
| 20260505233042 | 76 | 305 | 10.0 | 19.0 | 0.00 | 0.26 | 0.11 | 26 | 1010.3 |
| 20260505232543 | 77 | 219 | 10.0 | 19.0 | 0.00 | 0.26 | 0.11 | 26 | 1010.3 |
| 20260505232046 | 77 | 291 | 12.0 | 21.0 | 0.00 | 0.26 | 0.11 | 25 | 1010.3 |
| 20260505231544 | 77 | 264 | 13.0 | 21.0 | 0.00 | 0.26 | 0.11 | 26 | 1010.3 |
| 20260505231033 | 77 | 240 | 11.0 | 22.0 | 0.00 | 0.26 | 0.11 | 27 | 1010.3 |
| 20260505230544 | 76 | 307 | 8.0 | 22.0 | 0.00 | 0.26 | 0.11 | 27 | 1010.2 |
| 20260505230035 | 76 | 221 | 11.0 | 20.0 | 0.00 | 0.26 | 0.11 | 27 | 1010.3 |
| 20260505225603 | 76 | 269 | 10.0 | 21.0 | 0.00 | 0.26 | 0.11 | 27 | 1010.4 |
| 20260505225034 | 76 | 278 | 15.0 | 21.0 | 0.00 | 0.26 | 0.11 | 28 | 1010.4 |
| 20260505224606 | 75 | 243 | 12.0 | 19.0 | 0.00 | 0.26 | 0.11 | 28 | 1010.3 |
| 20260505224048 | 76 | 246 | 6.0 | 20.0 | 0.00 | 0.26 | 0.11 | 28 | 1010.4 |
| 20260505223546 | 76 | 272 | 13.0 | 23.0 | 0.00 | 0.26 | 0.11 | 28 | 1010.5 |
| 20260505223024 | 75 | 274 | 12.0 | 25.0 | 0.00 | 0.26 | 0.11 | 29 | 1010.5 |
| 20260505222546 | 74 | 234 | 11.0 | 19.0 | 0.00 | 0.26 | 0.11 | 29 | 1010.5 |
| 20260505222030 | 74 | 257 | 9.0 | 21.0 | 0.00 | 0.26 | 0.11 | 28 | 1010.7 |
| 20260505221603 | 74 | 225 | 14.0 | 21.0 | 0.00 | 0.26 | 0.11 | 29 | 1010.8 |
| 20260505221042 | 74 | 223 | 12.0 | 19.0 | 0.00 | 0.26 | 0.11 | 28 | 1010.8 |
| 20260505220534 | 74 | 234 | 12.0 | 22.0 | 0.00 | 0.26 | 0.11 | 28 | 1010.8 |
| 20260505220036 | 75 | 209 | 13.0 | 22.0 | 0.00 | 0.26 | 0.11 | 28 | 1010.8 |
| 20260505215540 | 75 | 233 | 12.0 | 20.0 | 0.00 | 0.26 | 0.11 | 28 | 1010.8 |
| 20260505215039 | 75 | 293 | 11.0 | 22.0 | 0.00 | 0.26 | 0.11 | 29 | 1010.9 |
| 20260505214541 | 75 | 227 | 10.0 | 24.0 | 0.00 | 0.26 | 0.11 | 30 | 1011.1 |
| 20260505214045 | 75 | 234 | 14.0 | 25.0 | 0.00 | 0.26 | 0.11 | 29 | 1011.2 |
| 20260505213547 | 75 | 219 | 15.0 | 25.0 | 0.00 | 0.26 | 0.11 | 29 | 1011.1 |
| 20260505213050 | 75 | 206 | 14.0 | 25.0 | 0.00 | 0.26 | 0.11 | 29 | 1011.3 |
| 20260505212529 | 76 | 178 | 13.0 | 25.0 | 0.00 | 0.26 | 0.11 | 28 | 1011.4 |
| 20260505212039 | 76 | 269 | 13.0 | 27.0 | 0.00 | 0.26 | 0.11 | 29 | 1011.4 |
| 20260505211545 | 75 | 262 | 14.0 | 27.0 | 0.00 | 0.26 | 0.11 | 30 | 1011.4 |
| 20260505211028 | 75 | 218 | 14.0 | 24.0 | 0.00 | 0.26 | 0.11 | 31 | 1011.6 |
| 20260505210534 | 75 | 248 | 16.0 | 24.0 | 0.00 | 0.26 | 0.11 | 30 | 1011.7 |
| 20260505210026 | 75 | 215 | 10.0 | 22.0 | 0.00 | 0.26 | 0.11 | 31 | 1011.7 |
| 20260505205545 | 75 | 238 | 12.0 | 29.0 | 0.00 | 0.26 | 0.11 | 29 | 1011.8 |
| 20260505205028 | 75 | 231 | 16.0 | 29.0 | 0.00 | 0.26 | 0.11 | 29 | 1011.8 |
| 20260505204535 | 74 | 255 | 12.0 | 24.0 | 0.00 | 0.26 | 0.11 | 31 | 1011.8 |
| 20260505204025 | 74 | 255 | 16.0 | 31.0 | 0.00 | 0.26 | 0.11 | 32 | 1011.8 |
| 20260505203606 | 74 | 246 | 19.0 | 31.0 | 0.00 | 0.26 | 0.11 | 32 | 1011.8 |
| 20260505203027 | 74 | 219 | 18.0 | 27.0 | 0.00 | 0.26 | 0.11 | 31 | 1011.9 |
| 20260505202559 | 74 | 227 | 15.0 | 27.0 | 0.00 | 0.26 | 0.11 | 31 | 1011.8 |
| 20260505202038 | 74 | 240 | 17.0 | 31.0 | 0.00 | 0.26 | 0.11 | 32 | 1011.9 |
| 20260505201531 | 74 | 211 | 17.0 | 31.0 | 0.00 | 0.26 | 0.11 | 30 | 1011.9 |
| 20260505201043 | 74 | 252 | 18.0 | 31.0 | 0.00 | 0.26 | 0.11 | 31 | 1012.0 |
| 20260505200526 | 74 | 245 | 19.0 | 35.0 | 0.00 | 0.26 | 0.11 | 32 | 1012.0 |
| 20260505200038 | 75 | 225 | 21.0 | 35.0 | 0.00 | 0.26 | 0.11 | 31 | 1011.9 |
| 20260505195545 | 75 | 255 | 15.0 | 28.0 | 0.00 | 0.26 | 0.11 | 32 | 1012.0 |
| 20260505195025 | 75 | 243 | 17.0 | 29.0 | 0.00 | 0.26 | 0.11 | 31 | 1012.1 |
| 20260505194605 | 74 | 295 | 15.0 | 29.0 | 0.00 | 0.26 | 0.11 | 34 | 1012.0 |
| 20260505194027 | 74 | 281 | 14.0 | 28.0 | 0.00 | 0.26 | 0.11 | 33 | 1012.0 |
| 20260505193532 | 74 | 277 | 16.0 | 28.0 | 0.00 | 0.26 | 0.11 | 35 | 1012.1 |
| 20260505193044 | 74 | 262 | 18.0 | 28.0 | 0.00 | 0.26 | 0.11 | 36 | 1012.1 |
| 20260505192534 | 74 | 257 | 16.0 | 30.0 | 0.00 | 0.26 | 0.11 | 38 | 1012.1 |
| 20260505192036 | 73 | 277 | 13.0 | 30.0 | 0.00 | 0.26 | 0.11 | 40 | 1012.0 |
| 20260505191535 | 73 | 252 | 17.0 | 25.0 | 0.00 | 0.26 | 0.11 | 41 | 1012.1 |
| 20260505191026 | 73 | 252 | 16.0 | 29.0 | 0.00 | 0.26 | 0.11 | 42 | 1012.2 |
| 20260505190544 | 73 | 223 | 19.0 | 29.0 | 0.00 | 0.26 | 0.11 | 42 | 1012.2 |
| 20260505190048 | 73 | 262 | 16.0 | 25.0 | 0.00 | 0.26 | 0.11 | 44 | 1012.2 |
| 20260505185524 | 73 | 245 | 16.0 | 25.0 | 0.00 | 0.26 | 0.11 | 43 | 1012.2 |
| 20260505185052 | 73 | 231 | 15.0 | 23.0 | 0.00 | 0.26 | 0.11 | 44 | 1012.3 |
| 20260505184542 | 73 | 260 | 14.0 | 22.0 | 0.00 | 0.26 | 0.11 | 44 | 1012.3 |
| 20260505184047 | 73 | 267 | 15.0 | 22.0 | 0.00 | 0.26 | 0.11 | 45 | 1012.3 |
| 20260505183530 | 72 | 255 | 13.0 | 24.0 | 0.00 | 0.26 | 0.11 | 46 | 1012.5 |
| 20260505183038 | 73 | 257 | 13.0 | 24.0 | 0.00 | 0.26 | 0.11 | 46 | 1012.5 |
| 20260505182550 | 72 | 230 | 11.0 | 19.0 | 0.00 | 0.26 | 0.11 | 46 | 1012.5 |
| 20260505182052 | 72 | 253 | 13.0 | 19.0 | 0.00 | 0.26 | 0.11 | 48 | 1012.6 |
| 20260505181554 | 70 | 236 | 8.0 | 13.0 | 0.00 | 0.26 | 0.11 | 52 | 1012.6 |
| 20260505181102 | 70 | 195 | 3.0 | 13.0 | 0.00 | 0.26 | 0.11 | 51 | 1012.6 |
| 20260505180531 | 70 | 218 | 3.0 | 13.0 | 0.00 | 0.26 | 0.11 | 51 | 1012.7 |
| 20260505180042 | 69 | 253 | 5.0 | 14.0 | 0.00 | 0.26 | 0.11 | 53 | 1012.8 |
| 20260505175543 | 68 | 233 | 6.0 | 14.0 | 0.00 | 0.26 | 0.11 | 55 | 1012.9 |
| 20260505175026 | 68 | 227 | 7.0 | 13.0 | 0.00 | 0.26 | 0.11 | 55 | 1013.0 |
| 20260505174535 | 68 | 284 | 5.0 | 10.0 | 0.00 | 0.26 | 0.11 | 57 | 1013.0 |
| 20260505174026 | 68 | 208 | 7.0 | 12.0 | 0.00 | 0.26 | 0.11 | 56 | 1013.0 |
| 20260505173607 | 68 | 229 | 7.0 | 12.0 | 0.00 | 0.26 | 0.11 | 57 | 1013.1 |
| 20260505173030 | 68 | 276 | 5.0 | 9.0 | 0.00 | 0.26 | 0.11 | 57 | 1013.1 |
| 20260505172536 | 68 | 298 | 6.0 | 9.0 | 0.00 | 0.26 | 0.11 | 56 | 1013.1 |
| 20260505172047 | 68 | 281 | 6.0 | 9.0 | 0.00 | 0.26 | 0.11 | 58 | 1013.1 |
| 20260505171600 | 68 | 4 | 3.0 | 13.0 | 0.00 | 0.26 | 0.11 | 57 | 1013.1 |
| 20260505171043 | 68 | 283 | 10.0 | 13.0 | 0.00 | 0.26 | 0.11 | 57 | 1013.1 |
| 20260505170540 | 67 | 269 | 6.0 | 11.0 | 0.00 | 0.26 | 0.11 | 59 | 1013.0 |
| 20260505170112 | 66 | 324 | 3.0 | 6.0 | 0.00 | 0.26 | 0.11 | 59 | 1013.0 |
| 20260505165603 | 66 | 343 | 3.0 | 6.0 | 0.00 | 0.26 | 0.11 | 60 | 1013.0 |
| 20260505165027 | 66 | 338 | 2.0 | 9.0 | 0.00 | 0.26 | 0.11 | 59 | 1012.9 |
| 20260505164534 | 66 | 213 | 3.0 | 10.0 | 0.00 | 0.26 | 0.11 | 59 | 1012.9 |
| 20260505164046 | 65 | 295 | 4.0 | 7.0 | 0.00 | 0.26 | 0.11 | 62 | 1013.0 |
| 20260505163556 | 65 | 269 | 4.0 | 6.0 | 0.00 | 0.26 | 0.11 | 64 | 1012.9 |
| 20260505163036 | 64 | 250 | 3.0 | 7.0 | 0.00 | 0.26 | 0.11 | 64 | 1012.9 |
| 20260505162533 | 64 | 72 | 2.0 | 9.0 | 0.00 | 0.26 | 0.11 | 64 | 1012.9 |
| 20260505162045 | 64 | 290 | 5.0 | 9.0 | 0.00 | 0.26 | 0.11 | 66 | 1013.0 |
| 20260505161547 | 63 | 352 | 4.0 | 8.0 | 0.00 | 0.26 | 0.11 | 67 | 1013.0 |
| 20260505161029 | 63 | 307 | 2.0 | 7.0 | 0.00 | 0.26 | 0.11 | 68 | 1013.1 |
| 20260505160600 | 63 | 245 | 3.0 | 7.0 | 0.00 | 0.26 | 0.11 | 69 | 1013.1 |
| 20260505153037 | 62 | 290 | 3.0 | 8.0 | 0.00 | 0.26 | 0.11 | 75 | 1012.9 |
| 20260505152541 | 62 | 246 | 5.0 | 10.0 | 0.00 | 0.26 | 0.11 | 74 | 1012.9 |
| 20260505152043 | 61 | 271 | 5.0 | 10.0 | 0.00 | 0.26 | 0.11 | 76 | 1012.8 |
| 20260505151541 | 61 | 286 | 4.0 | 10.0 | 0.00 | 0.26 | 0.11 | 76 | 1012.9 |
| 20260505151052 | 61 | 298 | 6.0 | 9.0 | 0.00 | 0.26 | 0.11 | 77 | 1012.9 |
| 20260505150534 | 60 | 284 | 5.0 | 10.0 | 0.00 | 0.26 | 0.11 | 78 | 1013.0 |
| 20260505140600 | 60 | 279 | 1.0 | 3.0 | 0.01 | 0.26 | 0.11 | 82 | 1012.7 |
| 20260505124549 | 59 | 135 | 3.0 | 5.0 | 0.00 | 0.25 | 0.10 | 83 | 1011.8 |
| 20260505124032 | 59 | 156 | 3.0 | 5.0 | 0.00 | 0.25 | 0.10 | 83 | 1011.8 |
| 20260505123535 | 59 | 160 | 3.0 | 6.0 | 0.00 | 0.25 | 0.10 | 84 | 1011.7 |
| 20260505123039 | 59 | 135 | 3.0 | 7.0 | 0.00 | 0.25 | 0.10 | 84 | 1011.7 |
| 20260505122537 | 58 | 126 | 4.0 | 7.0 | 0.00 | 0.25 | 0.10 | 84 | 1011.7 |
| 20260505122048 | 59 | 144 | 3.0 | 5.0 | 0.00 | 0.25 | 0.10 | 85 | 1011.6 |
| 20260505121538 | 59 | 172 | 3.0 | 8.0 | 0.00 | 0.25 | 0.10 | 84 | 1011.5 |
| 20260505121041 | 59 | 152 | 4.0 | 9.0 | 0.00 | 0.25 | 0.10 | 83 | 1011.6 |
| 20260505120539 | 59 | 149 | 6.0 | 11.0 | 0.00 | 0.25 | 0.10 | 83 | 1011.8 |
| 20260505120029 | 59 | 146 | 5.0 | 11.0 | 0.00 | 0.25 | 0.10 | 83 | 1011.3 |
| 20260505115600 | 59 | 102 | 6.0 | 10.0 | 0.00 | 0.25 | 0.10 | 84 | 1011.3 |
| 20260505115043 | 59 | 141 | 3.0 | 8.0 | 0.00 | 0.25 | 0.10 | 84 | 1011.6 |
| 20260505114546 | 59 | 129 | 5.0 | 8.0 | 0.00 | 0.25 | 0.10 | 83 | 1011.6 |
| 20260505114051 | 59 | 117 | 4.0 | 11.0 | 0.00 | 0.25 | 0.10 | 84 | 1011.3 |
| 20260505113533 | 59 | 108 | 6.0 | 11.0 | 0.00 | 0.25 | 0.10 | 83 | 1011.3 |
| 20260505113036 | 58 | 126 | 4.0 | 9.0 | 0.00 | 0.25 | 0.10 | 85 | 1011.2 |
| 20260505112539 | 58 | 135 | 4.0 | 10.0 | 0.00 | 0.25 | 0.10 | 86 | 1011.5 |
| 20260505112039 | 58 | 138 | 5.0 | 10.0 | 0.00 | 0.25 | 0.10 | 87 | 1011.8 |
| 20260505111549 | 58 | 122 | 4.0 | 9.0 | 0.00 | 0.25 | 0.10 | 86 | 1011.8 |
| 20260505111051 | 58 | 127 | 5.0 | 9.0 | 0.00 | 0.25 | 0.10 | 86 | 1011.9 |
| 20260505110533 | 58 | 121 | 5.0 | 12.0 | 0.00 | 0.25 | 0.10 | 87 | 1011.9 |
| 20260505102058 | 58 | 98 | 6.0 | 14.0 | 0.01 | 0.25 | 0.10 | 89 | 1011.8 |
| 20260505101529 | 58 | 98 | 8.0 | 14.0 | 0.01 | 0.25 | 0.10 | 89 | 1011.9 |
| 20260505101109 | 58 | 120 | 4.0 | 7.0 | 0.02 | 0.25 | 0.10 | 90 | 1012.4 |
| 20260505100528 | 58 | 117 | 3.0 | 9.0 | 0.02 | 0.25 | 0.10 | 91 | 1012.7 |
| 20260505100057 | 58 | 95 | 5.0 | 10.0 | 0.03 | 0.25 | 0.10 | 91 | 1012.8 |
| 20260505095546 | 58 | 59 | 4.0 | 10.0 | 0.03 | 0.25 | 0.10 | 91 | 1012.9 |
| 20260505095057 | 58 | 105 | 6.0 | 12.0 | 0.03 | 0.25 | 0.10 | 91 | 1012.9 |
| 20260505094539 | 58 | 105 | 7.0 | 12.0 | 0.03 | 0.25 | 0.10 | 91 | 1012.9 |
| 20260505094039 | 58 | 107 | 5.0 | 11.0 | 0.03 | 0.25 | 0.10 | 91 | 1012.9 |
| 20260505093528 | 58 | 115 | 6.0 | 11.0 | 0.03 | 0.25 | 0.10 | 91 | 1012.9 |
| 20260505093040 | 58 | 122 | 5.0 | 11.0 | 0.03 | 0.25 | 0.10 | 91 | 1013.0 |
| 20260505092544 | 58 | 133 | 5.0 | 11.0 | 0.04 | 0.25 | 0.10 | 91 | 1013.0 |
| 20260505092026 | 58 | 114 | 5.0 | 14.0 | 0.03 | 0.24 | 0.09 | 91 | 1013.0 |
| 20260505091536 | 58 | 96 | 8.0 | 14.0 | 0.03 | 0.24 | 0.09 | 91 | 1013.2 |